SPACEBEE-57 (47465 NORAD) Tracking and Keplerian Element Data

This shows tracking and keplerian element data for the satellite.

Feedback or suggestion? Click here.




ElementValue
Catalog47465
NameSPACEBEE-57
Epoch Orbit1198
Epoch Day101.92424394
Epoch Year2021
RAAN164.1593
Inclination97.4944
Eccentricity0.0005626
Argument of Perigee4.5697
Mean Anonmoly355.5583
Mean Motion15.11515237
Decay Rate7.01E-06
L11 47465U 21006BE 21101.92424394 .00000701 00000-0 45138-4 0 9990
L22 47465 97.4944 164.1593 0005626 4.5697 355.5583 15.11515237 11988

Live tracking and technical data element details for SPACEBEE-57 (NORAD 47465). SPACEBEE-57 can be tracked NOW for your location showing map with azimuth and elevation plus other details from your city location.

Track the satellite on the map from your city or location and see movement details for azimuth, elevation, latitude, longitude, range, height, and movement on the map or in text.







IsCatalogInMostPopularTable: catalog: 47465, numindb: 15
Update: records affected: 1



GetName: 47465 SPACEBEE-57

Hit Count: updated at: Tue, 13 Apr 2021 03:19:07 GMT